Year,Month,Day,Hour,Minute,Value (Times are PST for temperature in C)
2012,09,12,00,00,9.10
2012,09,12,00,01,9.10
2012,09,12,00,02,9.10
2012,09,12,00,03,9.10
2012,09,12,00,04,9.10
2012,09,12,00,05,9.10
2012,09,12,00,06,9.10
2012,09,12,00,07,9.10
2012,09,12,00,08,9.10
2012,09,12,00,09,9.10
2012,09,12,00,10,9.10
2012,09,12,00,11,9.10
2012,09,12,00,12,9.10
2012,09,12,00,13,9.10
2012,09,12,00,14,9.10
2012,09,12,00,15,9.10
2012,09,12,00,16,9.10
2012,09,12,00,17,9.10
2012,09,12,00,18,9.10
2012,09,12,00,19,9.10
2012,09,12,00,20,9.10
2012,09,12,00,21,9.10
2012,09,12,00,22,9.10
2012,09,12,00,23,9.10
2012,09,12,00,24,9.10
2012,09,12,00,25,9.10
2012,09,12,00,26,9.00
2012,09,12,00,27,9.00
2012,09,12,00,28,9.00
2012,09,12,00,29,9.00
2012,09,12,00,30,8.90
2012,09,12,00,31,8.90
2012,09,12,00,32,8.90
2012,09,12,00,33,8.90
2012,09,12,00,34,8.90
2012,09,12,00,35,8.90
2012,09,12,00,36,8.90
2012,09,12,00,37,8.90
2012,09,12,00,38,8.90
2012,09,12,00,39,8.90
2012,09,12,00,40,8.90
2012,09,12,00,41,8.80
2012,09,12,00,42,8.90
2012,09,12,00,43,8.80
2012,09,12,00,44,8.80
2012,09,12,00,45,8.80
2012,09,12,00,46,8.80
2012,09,12,00,47,8.80
2012,09,12,00,48,8.80
2012,09,12,00,49,8.80
2012,09,12,00,50,8.80
2012,09,12,00,51,8.80
2012,09,12,00,52,8.80
2012,09,12,00,53,8.80
2012,09,12,00,54,8.80
2012,09,12,00,55,8.70
2012,09,12,00,56,8.70
2012,09,12,00,57,8.70
2012,09,12,00,58,8.70
2012,09,12,00,59,8.60
2012,09,12,01,00,8.60
2012,09,12,01,01,8.60
2012,09,12,01,02,8.60
2012,09,12,01,03,8.60
2012,09,12,01,04,8.60
2012,09,12,01,05,8.60
2012,09,12,01,06,8.50
2012,09,12,01,07,8.50
2012,09,12,01,08,8.50
2012,09,12,01,09,8.50
2012,09,12,01,10,8.40
2012,09,12,01,11,8.40
2012,09,12,01,12,8.40
2012,09,12,01,13,8.40
2012,09,12,01,14,8.40
2012,09,12,01,15,8.40
2012,09,12,01,16,8.30
2012,09,12,01,17,8.30
2012,09,12,01,18,8.30
2012,09,12,01,19,8.30
2012,09,12,01,20,8.30
2012,09,12,01,21,8.30
2012,09,12,01,22,8.30
2012,09,12,01,23,8.30
2012,09,12,01,24,8.20
2012,09,12,01,25,8.20
2012,09,12,01,26,8.20
2012,09,12,01,27,8.20
2012,09,12,01,28,8.20
2012,09,12,01,29,8.10
2012,09,12,01,30,8.10
2012,09,12,01,31,8.10
2012,09,12,01,32,8.10
2012,09,12,01,33,8.10
2012,09,12,01,34,8.10
2012,09,12,01,35,8.10
2012,09,12,01,36,8.10
2012,09,12,01,37,8.10
2012,09,12,01,38,8.10
2012,09,12,01,39,8.10
2012,09,12,01,40,8.10
2012,09,12,01,41,8.10
2012,09,12,01,42,8.10
2012,09,12,01,43,8.10
2012,09,12,01,44,8.10
2012,09,12,01,45,8.00
2012,09,12,01,46,8.00
2012,09,12,01,47,8.00
2012,09,12,01,48,8.00
2012,09,12,01,49,8.00
2012,09,12,01,50,7.90
2012,09,12,01,51,7.90
2012,09,12,01,52,7.90
2012,09,12,01,53,7.90
2012,09,12,01,54,7.90
2012,09,12,01,55,7.90
2012,09,12,01,56,7.90
2012,09,12,01,57,7.90
2012,09,12,01,58,7.90
2012,09,12,01,59,7.90
2012,09,12,02,00,7.80
2012,09,12,02,01,7.90
2012,09,12,02,02,7.90
2012,09,12,02,03,7.90
2012,09,12,02,04,7.90
2012,09,12,02,05,7.90
2012,09,12,02,06,7.90
2012,09,12,02,07,7.90
2012,09,12,02,08,7.90
2012,09,12,02,09,7.90
2012,09,12,02,10,7.90
2012,09,12,02,11,7.90
2012,09,12,02,12,7.80
2012,09,12,02,13,7.80
2012,09,12,02,14,7.80
2012,09,12,02,15,7.80
2012,09,12,02,16,7.80
2012,09,12,02,17,7.80
2012,09,12,02,18,7.80
2012,09,12,02,19,7.80
2012,09,12,02,20,7.70
2012,09,12,02,21,7.70
2012,09,12,02,22,7.70
2012,09,12,02,23,7.70
2012,09,12,02,24,7.70
2012,09,12,02,25,7.70
2012,09,12,02,26,7.70
2012,09,12,02,27,7.70
2012,09,12,02,28,7.70
2012,09,12,02,29,7.70
2012,09,12,02,30,7.70
2012,09,12,02,31,7.70
2012,09,12,02,32,7.70
2012,09,12,02,33,7.60
2012,09,12,02,34,7.60
2012,09,12,02,35,7.60
2012,09,12,02,36,7.60
2012,09,12,02,37,7.60
2012,09,12,02,38,7.60
2012,09,12,02,39,7.50
2012,09,12,02,40,7.50
2012,09,12,02,41,7.50
2012,09,12,02,42,7.50
2012,09,12,02,43,7.50
2012,09,12,02,44,7.50
2012,09,12,02,45,7.50
2012,09,12,02,46,7.50
2012,09,12,02,47,7.40
2012,09,12,02,48,7.40
2012,09,12,02,49,7.40
2012,09,12,02,50,7.40
2012,09,12,02,51,7.40
2012,09,12,02,52,7.40
2012,09,12,02,53,7.40
2012,09,12,02,54,7.40
2012,09,12,02,55,7.40
2012,09,12,02,56,7.40
2012,09,12,02,57,7.40
2012,09,12,02,58,7.40
2012,09,12,02,59,7.40
2012,09,12,03,00,7.40
2012,09,12,03,01,7.40
2012,09,12,03,02,7.40
2012,09,12,03,03,7.40
2012,09,12,03,04,7.40
2012,09,12,03,05,7.40
2012,09,12,03,06,7.40
2012,09,12,03,07,7.40
2012,09,12,03,08,7.40
2012,09,12,03,09,7.40
2012,09,12,03,10,7.40
2012,09,12,03,11,7.30
2012,09,12,03,12,7.30
2012,09,12,03,13,7.30
2012,09,12,03,14,7.30
2012,09,12,03,15,7.30
2012,09,12,03,16,7.30
2012,09,12,03,17,7.30
2012,09,12,03,18,7.20
2012,09,12,03,19,7.20
2012,09,12,03,20,7.20
2012,09,12,03,21,7.20
2012,09,12,03,22,7.20
2012,09,12,03,23,7.20
2012,09,12,03,24,7.20
2012,09,12,03,25,7.10
2012,09,12,03,26,7.10
2012,09,12,03,27,7.10
2012,09,12,03,28,7.10
2012,09,12,03,29,7.10
2012,09,12,03,30,7.10
2012,09,12,03,31,7.10
2012,09,12,03,32,7.10
2012,09,12,03,33,7.10
2012,09,12,03,34,7.10
2012,09,12,03,35,7.20
2012,09,12,03,36,7.20
2012,09,12,03,37,7.20
2012,09,12,03,38,7.20
2012,09,12,03,39,7.20
2012,09,12,03,40,7.20
2012,09,12,03,41,7.20
2012,09,12,03,42,7.20
2012,09,12,03,43,7.20
2012,09,12,03,44,7.20
2012,09,12,03,45,7.20
2012,09,12,03,46,7.20
2012,09,12,03,47,7.20
2012,09,12,03,48,7.20
2012,09,12,03,49,7.20
2012,09,12,03,50,7.10
2012,09,12,03,51,7.10
2012,09,12,03,52,7.10
2012,09,12,03,53,7.10
2012,09,12,03,54,7.10
2012,09,12,03,55,7.10
2012,09,12,03,56,7.10
2012,09,12,03,57,7.10
2012,09,12,03,58,7.10
2012,09,12,03,59,7.10
2012,09,12,04,00,7.10
2012,09,12,04,01,7.20
2012,09,12,04,02,7.20
2012,09,12,04,03,7.30
2012,09,12,04,04,7.30
2012,09,12,04,05,7.30
2012,09,12,04,06,7.40
2012,09,12,04,07,7.40
2012,09,12,04,08,7.50
2012,09,12,04,09,7.50
2012,09,12,04,10,7.60
2012,09,12,04,11,7.60
2012,09,12,04,12,7.60
2012,09,12,04,13,7.70
2012,09,12,04,14,7.70
2012,09,12,04,15,7.70
2012,09,12,04,16,7.80
2012,09,12,04,17,7.80
2012,09,12,04,18,7.80
2012,09,12,04,19,7.80
2012,09,12,04,20,7.90
2012,09,12,04,21,7.90
2012,09,12,04,22,7.90
2012,09,12,04,23,8.00
2012,09,12,04,24,8.00
2012,09,12,04,25,8.10
2012,09,12,04,26,8.10
2012,09,12,04,27,8.10
2012,09,12,04,28,8.10
2012,09,12,04,29,8.20
2012,09,12,04,30,8.20
2012,09,12,04,31,8.20
2012,09,12,04,32,8.20
2012,09,12,04,33,8.30
2012,09,12,04,34,8.30
2012,09,12,04,35,8.30
2012,09,12,04,36,8.30
2012,09,12,04,37,8.40
2012,09,12,04,38,8.40
2012,09,12,04,39,8.40
2012,09,12,04,40,8.40
2012,09,12,04,41,8.50
2012,09,12,04,42,8.50
2012,09,12,04,43,8.60
2012,09,12,04,44,8.60
2012,09,12,04,45,8.60
2012,09,12,04,46,8.60
2012,09,12,04,47,8.70
2012,09,12,04,48,8.70
2012,09,12,04,49,8.70
2012,09,12,04,50,8.70
2012,09,12,04,51,8.80
2012,09,12,04,52,8.80
2012,09,12,04,53,8.80
2012,09,12,04,54,8.80
2012,09,12,04,55,8.80
2012,09,12,04,56,8.80
2012,09,12,04,57,8.90
2012,09,12,04,58,8.90
2012,09,12,04,59,8.90
2012,09,12,05,00,9.00
2012,09,12,05,01,9.00
2012,09,12,05,02,9.10
2012,09,12,05,03,9.10
2012,09,12,05,04,9.20
2012,09,12,05,05,9.20
2012,09,12,05,06,9.20
2012,09,12,05,07,9.20
2012,09,12,05,08,9.30
2012,09,12,05,09,9.30
2012,09,12,05,10,9.40
2012,09,12,05,11,9.40
2012,09,12,05,12,9.50
2012,09,12,05,13,9.50
2012,09,12,05,14,9.60
2012,09,12,05,15,9.60
2012,09,12,05,16,9.70
2012,09,12,05,17,9.70
2012,09,12,05,18,9.80
2012,09,12,05,19,9.80
2012,09,12,05,20,9.90
2012,09,12,05,21,9.90
2012,09,12,05,22,10.00
2012,09,12,05,23,10.00
2012,09,12,05,24,10.10
2012,09,12,05,25,10.10
2012,09,12,05,26,10.20
2012,09,12,05,27,10.20
2012,09,12,05,28,10.20
2012,09,12,05,29,10.30
2012,09,12,05,30,10.30
2012,09,12,05,31,10.30
2012,09,12,05,32,10.30
2012,09,12,05,33,10.40
2012,09,12,05,34,10.40
2012,09,12,05,35,10.40
2012,09,12,05,36,10.40
2012,09,12,05,37,10.50
2012,09,12,05,38,10.50
2012,09,12,05,39,10.50
2012,09,12,05,40,10.60
2012,09,12,05,41,10.60
2012,09,12,05,42,10.60
2012,09,12,05,43,10.70
2012,09,12,05,44,10.70
2012,09,12,05,45,10.70
2012,09,12,05,46,10.70
2012,09,12,05,47,10.70
2012,09,12,05,48,10.70
2012,09,12,05,49,10.70
2012,09,12,05,50,10.70
2012,09,12,05,51,10.70
2012,09,12,05,52,10.70
2012,09,12,05,53,10.70
2012,09,12,05,54,10.70
2012,09,12,05,55,10.70
2012,09,12,05,56,10.70
2012,09,12,05,57,10.70
2012,09,12,05,58,10.70
2012,09,12,05,59,10.70
2012,09,12,06,00,10.70
2012,09,12,06,01,10.70
2012,09,12,06,02,10.70
2012,09,12,06,03,10.70
2012,09,12,06,04,10.70
2012,09,12,06,05,10.70
2012,09,12,06,06,10.70
2012,09,12,06,07,10.70
2012,09,12,06,08,10.60
2012,09,12,06,09,10.60
2012,09,12,06,10,10.60
2012,09,12,06,11,10.60
2012,09,12,06,12,10.60
2012,09,12,06,13,10.60
2012,09,12,06,14,10.50
2012,09,12,06,15,10.50
2012,09,12,06,16,10.50
2012,09,12,06,17,10.40
2012,09,12,06,18,10.50
2012,09,12,06,19,10.40
2012,09,12,06,20,10.40
2012,09,12,06,21,10.40
2012,09,12,06,22,10.40
2012,09,12,06,23,10.40
2012,09,12,06,24,10.30
2012,09,12,06,25,10.30
2012,09,12,06,26,10.30
2012,09,12,06,27,10.30
2012,09,12,06,28,10.30
2012,09,12,06,29,10.30
2012,09,12,06,30,10.30
2012,09,12,06,31,10.20
2012,09,12,06,32,10.20
2012,09,12,06,33,10.20
2012,09,12,06,34,10.20
2012,09,12,06,35,10.20
2012,09,12,06,36,10.10
2012,09,12,06,37,10.10
2012,09,12,06,38,10.10
2012,09,12,06,39,10.10
2012,09,12,06,40,10.00
2012,09,12,06,41,10.00
2012,09,12,06,42,10.00
2012,09,12,06,43,9.90
2012,09,12,06,44,9.90
2012,09,12,06,45,9.90
2012,09,12,06,46,9.80
2012,09,12,06,47,9.80
2012,09,12,06,48,9.80
2012,09,12,06,49,9.80
2012,09,12,06,50,9.70
2012,09,12,06,51,9.70
2012,09,12,06,52,9.70
2012,09,12,06,53,9.70
2012,09,12,06,54,9.60
2012,09,12,06,55,9.60
2012,09,12,06,56,9.60
2012,09,12,06,57,9.50
2012,09,12,06,58,9.50
2012,09,12,06,59,9.50
2012,09,12,07,00,9.40
2012,09,12,07,01,9.40
2012,09,12,07,02,9.40
2012,09,12,07,03,9.40
2012,09,12,07,04,9.30
2012,09,12,07,05,9.30
2012,09,12,07,06,9.30
2012,09,12,07,07,9.30
2012,09,12,07,08,9.20
2012,09,12,07,09,9.20
2012,09,12,07,10,9.20
2012,09,12,07,11,9.20
2012,09,12,07,12,9.20
2012,09,12,07,13,9.20
2012,09,12,07,14,9.10
2012,09,12,07,15,9.10
2012,09,12,07,16,9.10
2012,09,12,07,17,9.10
2012,09,12,07,18,9.10
2012,09,12,07,19,9.10
2012,09,12,07,20,9.10
2012,09,12,07,21,9.10
2012,09,12,07,22,9.10
2012,09,12,07,23,9.10
2012,09,12,07,24,9.10
2012,09,12,07,25,9.10
2012,09,12,07,26,9.10
2012,09,12,07,27,9.10
2012,09,12,07,28,9.20
2012,09,12,07,29,9.20
2012,09,12,07,30,9.20
2012,09,12,07,31,9.20
2012,09,12,07,32,9.30
2012,09,12,07,33,9.30
2012,09,12,07,34,9.30
2012,09,12,07,35,9.40
2012,09,12,07,36,9.40
2012,09,12,07,37,9.50
2012,09,12,07,38,9.50
2012,09,12,07,39,9.60
2012,09,12,07,40,9.60
2012,09,12,07,41,9.70
2012,09,12,07,42,9.70
2012,09,12,07,43,9.80
2012,09,12,07,44,9.90
2012,09,12,07,45,9.90
2012,09,12,07,46,10.00
2012,09,12,07,47,10.10
2012,09,12,07,48,10.10
2012,09,12,07,49,10.20
2012,09,12,07,50,10.20
2012,09,12,07,51,10.30
2012,09,12,07,52,10.30
2012,09,12,07,53,10.40
2012,09,12,07,54,10.40
2012,09,12,07,55,10.50
2012,09,12,07,56,10.60
2012,09,12,07,57,10.60
2012,09,12,07,58,10.70
2012,09,12,07,59,10.70
2012,09,12,08,00,10.80
2012,09,12,08,01,10.80
2012,09,12,08,02,10.90
2012,09,12,08,03,11.00
2012,09,12,08,04,11.00
2012,09,12,08,05,11.10
2012,09,12,08,06,11.10
2012,09,12,08,07,11.20
2012,09,12,08,08,11.30
2012,09,12,08,09,11.30
2012,09,12,08,10,11.40
2012,09,12,08,11,11.50
2012,09,12,08,12,11.60
2012,09,12,08,13,11.60
2012,09,12,08,14,11.70
2012,09,12,08,15,11.80
2012,09,12,08,16,11.80
2012,09,12,08,17,11.90
2012,09,12,08,18,11.90
2012,09,12,08,19,12.00
2012,09,12,08,20,12.00
2012,09,12,08,21,12.10
2012,09,12,08,22,12.10
2012,09,12,08,23,12.20
2012,09,12,08,24,12.20
2012,09,12,08,25,12.30
2012,09,12,08,26,12.30
2012,09,12,08,27,12.40
2012,09,12,08,28,12.50
2012,09,12,08,29,12.50
2012,09,12,08,30,12.60
2012,09,12,08,31,12.70
2012,09,12,08,32,12.70
2012,09,12,08,33,12.80
2012,09,12,08,34,12.90
2012,09,12,08,35,12.90
2012,09,12,08,36,13.00
2012,09,12,08,37,13.00
2012,09,12,08,38,13.10
2012,09,12,08,39,13.20
2012,09,12,08,40,13.20
2012,09,12,08,41,13.30
2012,09,12,08,42,13.30
2012,09,12,08,43,13.40
2012,09,12,08,44,13.40
2012,09,12,08,45,13.40
2012,09,12,08,46,13.50
2012,09,12,08,47,13.50
2012,09,12,08,48,13.60
2012,09,12,08,49,13.60
2012,09,12,08,50,13.60
2012,09,12,08,51,13.60
2012,09,12,08,52,13.70
2012,09,12,08,53,13.70
2012,09,12,08,54,13.70
2012,09,12,08,55,13.70
2012,09,12,08,56,13.80
2012,09,12,08,57,13.80
2012,09,12,08,58,13.80
2012,09,12,08,59,13.80
2012,09,12,09,00,13.80
2012,09,12,09,01,13.80
2012,09,12,09,02,13.80
2012,09,12,09,03,13.80
2012,09,12,09,04,13.90
2012,09,12,09,05,13.90
2012,09,12,09,06,13.90
2012,09,12,09,07,13.90
2012,09,12,09,08,13.90
2012,09,12,09,09,13.90
2012,09,12,09,10,14.00
2012,09,12,09,11,14.00
2012,09,12,09,12,14.00
2012,09,12,09,13,14.00
2012,09,12,09,14,14.00
2012,09,12,09,15,14.00
2012,09,12,09,16,14.10
2012,09,12,09,17,14.10
2012,09,12,09,18,14.10
2012,09,12,09,19,14.10
2012,09,12,09,20,14.10
2012,09,12,09,21,14.20
2012,09,12,09,22,14.20
2012,09,12,09,23,14.20
2012,09,12,09,24,14.30
2012,09,12,09,25,14.30
2012,09,12,09,26,14.30
2012,09,12,09,27,14.30
2012,09,12,09,28,14.40
2012,09,12,09,29,14.40
2012,09,12,09,30,14.40
2012,09,12,09,31,14.40
2012,09,12,09,32,14.40
2012,09,12,09,33,14.50
2012,09,12,09,34,14.50
2012,09,12,09,35,14.50
2012,09,12,09,36,14.60
2012,09,12,09,37,14.60
2012,09,12,09,38,14.60
2012,09,12,09,39,14.70
2012,09,12,09,40,14.70
2012,09,12,09,41,14.70
2012,09,12,09,42,14.70
2012,09,12,09,43,14.70
2012,09,12,09,44,14.80
2012,09,12,09,45,14.80
2012,09,12,09,46,14.90
2012,09,12,09,47,14.90
2012,09,12,09,48,14.90
2012,09,12,09,49,14.90
2012,09,12,09,50,14.90
2012,09,12,09,51,14.90
2012,09,12,09,52,14.90
2012,09,12,09,53,15.00
2012,09,12,09,54,15.00
2012,09,12,09,55,15.10
2012,09,12,09,56,15.10
2012,09,12,09,57,15.20
2012,09,12,09,58,15.20
2012,09,12,09,59,15.20
2012,09,12,10,00,15.30
2012,09,12,10,01,15.30
2012,09,12,10,02,15.40
2012,09,12,10,03,15.40
2012,09,12,10,04,15.40
2012,09,12,10,05,15.50
2012,09,12,10,06,15.60
2012,09,12,10,07,15.60
2012,09,12,10,08,15.60
2012,09,12,10,09,15.70
2012,09,12,10,10,15.70
2012,09,12,10,11,15.70
2012,09,12,10,12,15.70
2012,09,12,10,13,15.70
2012,09,12,10,14,15.70
2012,09,12,10,15,15.70
2012,09,12,10,16,15.60
2012,09,12,10,17,15.60
2012,09,12,10,18,15.60
2012,09,12,10,19,15.60
2012,09,12,10,20,15.50
2012,09,12,10,21,15.50
2012,09,12,10,22,15.40
2012,09,12,10,23,15.40
2012,09,12,10,24,15.40
2012,09,12,10,25,15.40
2012,09,12,10,26,15.40
2012,09,12,10,27,15.40
2012,09,12,10,28,15.50
2012,09,12,10,29,15.50
2012,09,12,10,30,15.60
2012,09,12,10,31,15.60
2012,09,12,10,32,15.70
2012,09,12,10,33,15.70
2012,09,12,10,34,15.80
2012,09,12,10,35,15.90
2012,09,12,10,36,15.90
2012,09,12,10,37,15.90
2012,09,12,10,38,15.90
2012,09,12,10,39,15.90
2012,09,12,10,40,15.90
2012,09,12,10,41,15.90
2012,09,12,10,42,15.90
2012,09,12,10,43,15.90
2012,09,12,10,44,15.90
2012,09,12,10,45,16.00
2012,09,12,10,46,16.00
2012,09,12,10,47,16.10
2012,09,12,10,48,16.20
2012,09,12,10,49,16.20
2012,09,12,10,50,16.30
2012,09,12,10,51,16.30
2012,09,12,10,52,16.30
2012,09,12,10,53,16.30
2012,09,12,10,54,16.30
2012,09,12,10,55,16.40
2012,09,12,10,56,16.40
2012,09,12,10,57,16.40
2012,09,12,10,58,16.40
2012,09,12,10,59,16.40
2012,09,12,11,00,16.40
2012,09,12,11,01,16.50
2012,09,12,11,02,16.50
2012,09,12,11,03,16.50
2012,09,12,11,04,16.50
2012,09,12,11,05,16.50
2012,09,12,11,06,16.50
2012,09,12,11,07,16.50
2012,09,12,11,08,16.50
2012,09,12,11,09,16.50
2012,09,12,11,10,16.60
2012,09,12,11,11,16.60
2012,09,12,11,12,16.60
2012,09,12,11,13,16.60
2012,09,12,11,14,16.70
2012,09,12,11,15,16.70
2012,09,12,11,16,16.70
2012,09,12,11,17,16.80
2012,09,12,11,18,16.80
2012,09,12,11,19,16.80
2012,09,12,11,20,16.80
2012,09,12,11,21,16.80
2012,09,12,11,22,16.70
2012,09,12,11,23,16.70
2012,09,12,11,24,16.70
2012,09,12,11,25,16.70
2012,09,12,11,26,16.70
2012,09,12,11,27,16.80
2012,09,12,11,28,16.80
2012,09,12,11,29,16.80
2012,09,12,11,30,16.80
2012,09,12,11,31,16.80
2012,09,12,11,32,16.80
2012,09,12,11,33,16.80
2012,09,12,11,34,16.80
2012,09,12,11,35,16.80
2012,09,12,11,36,16.80
2012,09,12,11,37,16.80
2012,09,12,11,38,16.80
2012,09,12,11,39,16.80
2012,09,12,11,40,16.80
2012,09,12,11,41,16.80
2012,09,12,11,42,16.90
2012,09,12,11,43,16.90
2012,09,12,11,44,16.90
2012,09,12,11,45,17.00
2012,09,12,11,46,17.00
2012,09,12,11,47,17.10
2012,09,12,11,48,17.10
2012,09,12,11,49,17.10
2012,09,12,11,50,17.20
2012,09,12,11,51,17.20
2012,09,12,11,52,17.30
2012,09,12,11,53,17.30
2012,09,12,11,54,17.40
2012,09,12,11,55,17.40
2012,09,12,11,56,17.50
2012,09,12,11,57,17.50
2012,09,12,11,58,17.60
2012,09,12,11,59,17.60
2012,09,12,12,00,17.60
2012,09,12,12,01,17.60
2012,09,12,12,02,17.60
2012,09,12,12,03,17.60
2012,09,12,12,04,17.60
2012,09,12,12,05,17.70
2012,09,12,12,06,17.70
2012,09,12,12,07,17.70
2012,09,12,12,08,17.60
2012,09,12,12,09,17.60
2012,09,12,12,10,17.60
2012,09,12,12,11,17.60
2012,09,12,12,12,17.60
2012,09,12,12,13,17.60
2012,09,12,12,14,17.60
2012,09,12,12,15,17.60
2012,09,12,12,16,17.60
2012,09,12,12,17,17.60
2012,09,12,12,18,17.60
2012,09,12,12,19,17.60
2012,09,12,12,20,17.60
2012,09,12,12,21,17.60
2012,09,12,12,22,17.60
2012,09,12,12,23,17.70
2012,09,12,12,24,17.70
2012,09,12,12,25,17.70
2012,09,12,12,26,17.70
2012,09,12,12,27,17.70
2012,09,12,12,28,17.70
2012,09,12,12,29,17.80
2012,09,12,12,30,17.80
2012,09,12,12,31,17.80
2012,09,12,12,32,17.80
2012,09,12,12,33,17.90
2012,09,12,12,34,18.00
2012,09,12,12,35,18.10
2012,09,12,12,36,18.10
2012,09,12,12,37,18.10
2012,09,12,12,38,18.10
2012,09,12,12,39,18.10
2012,09,12,12,40,18.10
2012,09,12,12,41,18.10
2012,09,12,12,42,18.00
2012,09,12,12,43,18.10
2012,09,12,12,44,18.00
2012,09,12,12,45,18.10
2012,09,12,12,46,18.10
2012,09,12,12,47,18.10
2012,09,12,12,48,18.10
2012,09,12,12,49,18.10
2012,09,12,12,50,18.10
2012,09,12,12,51,18.20
2012,09,12,12,52,18.20
2012,09,12,12,53,18.20
2012,09,12,12,54,18.30
2012,09,12,12,55,18.30
2012,09,12,12,56,18.30
2012,09,12,12,57,18.30
2012,09,12,12,58,18.40
2012,09,12,12,59,18.40
2012,09,12,13,00,18.40
2012,09,12,13,01,18.50
2012,09,12,13,02,18.50
2012,09,12,13,03,18.60
2012,09,12,13,04,18.60
2012,09,12,13,05,18.60
2012,09,12,13,06,18.60
2012,09,12,13,07,18.70
2012,09,12,13,08,18.70
2012,09,12,13,09,18.70
2012,09,12,13,10,18.70
2012,09,12,13,11,18.70
2012,09,12,13,12,18.70
2012,09,12,13,13,18.80
2012,09,12,13,14,18.80
2012,09,12,13,15,18.80
2012,09,12,13,16,18.80
2012,09,12,13,17,18.80
2012,09,12,13,18,18.90
2012,09,12,13,19,18.90
2012,09,12,13,20,19.00
2012,09,12,13,21,19.00
2012,09,12,13,22,19.10
2012,09,12,13,23,19.10
2012,09,12,13,24,19.10
2012,09,12,13,25,19.10
2012,09,12,13,26,19.20
2012,09,12,13,27,19.20
2012,09,12,13,28,19.30
2012,09,12,13,29,19.30
2012,09,12,13,30,19.40
2012,09,12,13,31,19.40
2012,09,12,13,32,19.40
2012,09,12,13,33,19.40
2012,09,12,13,34,19.40
2012,09,12,13,35,19.30
2012,09,12,13,36,19.20
2012,09,12,13,37,19.10
2012,09,12,13,38,19.10
2012,09,12,13,39,19.10
2012,09,12,13,40,19.10
2012,09,12,13,41,19.00
2012,09,12,13,42,19.00
2012,09,12,13,43,18.90
2012,09,12,13,44,18.90
2012,09,12,13,45,18.90
2012,09,12,13,46,18.90
2012,09,12,13,47,18.90
2012,09,12,13,48,18.90
2012,09,12,13,49,19.00
2012,09,12,13,50,19.00
2012,09,12,13,51,19.10
2012,09,12,13,52,19.10
2012,09,12,13,53,19.10
2012,09,12,13,54,19.10
2012,09,12,13,55,19.10
2012,09,12,13,56,19.10
2012,09,12,13,57,19.10
2012,09,12,13,58,19.00
2012,09,12,13,59,19.00
2012,09,12,14,00,19.00
2012,09,12,14,01,18.90
2012,09,12,14,02,18.90
2012,09,12,14,03,19.00
2012,09,12,14,04,19.00
2012,09,12,14,05,19.10
2012,09,12,14,06,19.10
2012,09,12,14,07,19.10
2012,09,12,14,08,19.10
2012,09,12,14,09,19.10
2012,09,12,14,10,19.10
2012,09,12,14,11,19.10
2012,09,12,14,12,19.00
2012,09,12,14,13,19.00
2012,09,12,14,14,18.90
2012,09,12,14,15,18.90
2012,09,12,14,16,19.00
2012,09,12,14,17,19.00
2012,09,12,14,18,19.00
2012,09,12,14,19,19.00
2012,09,12,14,20,19.10
2012,09,12,14,21,19.10
2012,09,12,14,22,19.10
2012,09,12,14,23,19.10
2012,09,12,14,24,19.10
2012,09,12,14,25,19.10
2012,09,12,14,26,19.00
2012,09,12,14,27,19.00
2012,09,12,14,28,19.00
2012,09,12,14,29,19.10
2012,09,12,14,30,19.10
2012,09,12,14,31,19.20
2012,09,12,14,32,19.30
2012,09,12,14,33,19.30
2012,09,12,14,34,19.30
2012,09,12,14,35,19.40
2012,09,12,14,36,19.50
2012,09,12,14,37,19.60
2012,09,12,14,38,19.70
2012,09,12,14,39,19.80
2012,09,12,14,40,19.80
2012,09,12,14,41,19.90
2012,09,12,14,42,20.00
2012,09,12,14,43,20.10
2012,09,12,14,44,20.20
2012,09,12,14,45,20.30
2012,09,12,14,46,20.30
2012,09,12,14,47,20.30
2012,09,12,14,48,20.30
2012,09,12,14,49,20.30
2012,09,12,14,50,20.20
2012,09,12,14,51,20.20
2012,09,12,14,52,20.20
2012,09,12,14,53,20.20
2012,09,12,14,54,20.20
2012,09,12,14,55,20.10
2012,09,12,14,56,20.10
2012,09,12,14,57,20.10
2012,09,12,14,58,20.00
2012,09,12,14,59,20.00
2012,09,12,15,00,19.90
2012,09,12,15,01,19.90
2012,09,12,15,02,19.90
2012,09,12,15,03,19.90
2012,09,12,15,04,19.90
2012,09,12,15,05,19.80
2012,09,12,15,06,19.80
2012,09,12,15,07,19.80
2012,09,12,15,08,19.80
2012,09,12,15,09,19.80
2012,09,12,15,10,19.80
2012,09,12,15,11,19.90
2012,09,12,15,12,19.90
2012,09,12,15,13,19.90
2012,09,12,15,14,19.90
2012,09,12,15,15,19.90
2012,09,12,15,16,19.90
2012,09,12,15,17,20.00
2012,09,12,15,18,20.00
2012,09,12,15,19,20.10
2012,09,12,15,20,20.10
2012,09,12,15,21,20.10
2012,09,12,15,22,20.20
2012,09,12,15,23,20.20
2012,09,12,15,24,20.20
2012,09,12,15,25,20.30
2012,09,12,15,26,20.30
2012,09,12,15,27,20.30
2012,09,12,15,28,20.30
2012,09,12,15,29,20.30
2012,09,12,15,30,20.20
2012,09,12,15,31,20.20
2012,09,12,15,32,20.20
2012,09,12,15,33,20.20
2012,09,12,15,34,20.30
2012,09,12,15,35,20.30
2012,09,12,15,36,20.40
2012,09,12,15,37,20.40
2012,09,12,15,38,20.50
2012,09,12,15,39,20.50
2012,09,12,15,40,20.50
2012,09,12,15,41,20.60
2012,09,12,15,42,20.60
2012,09,12,15,43,20.60
2012,09,12,15,44,20.60
2012,09,12,15,45,20.50
2012,09,12,15,46,20.40
2012,09,12,15,47,20.40
2012,09,12,15,48,20.30
2012,09,12,15,49,20.30
2012,09,12,15,50,20.20
2012,09,12,15,51,20.20
2012,09,12,15,52,20.20
2012,09,12,15,53,20.10
2012,09,12,15,54,20.10
2012,09,12,15,55,20.10
2012,09,12,15,56,20.10
2012,09,12,15,57,20.10
2012,09,12,15,58,20.10
2012,09,12,15,59,20.10
2012,09,12,16,00,20.10
2012,09,12,16,01,20.10
2012,09,12,16,02,20.10
2012,09,12,16,03,20.10
2012,09,12,16,04,20.10
2012,09,12,16,05,20.10
2012,09,12,16,06,20.10
2012,09,12,16,07,20.10
2012,09,12,16,08,20.20
2012,09,12,16,09,20.20
2012,09,12,16,10,20.20
2012,09,12,16,11,20.30
2012,09,12,16,12,20.30
2012,09,12,16,13,20.40
2012,09,12,16,14,20.40
2012,09,12,16,15,20.50
2012,09,12,16,16,20.60
2012,09,12,16,17,20.60
2012,09,12,16,18,20.70
2012,09,12,16,19,20.70
2012,09,12,16,20,20.80
2012,09,12,16,21,20.80
2012,09,12,16,22,20.80
2012,09,12,16,23,20.90
2012,09,12,16,24,20.90
2012,09,12,16,25,20.90
2012,09,12,16,26,20.90
2012,09,12,16,27,20.80
2012,09,12,16,28,20.90
2012,09,12,16,29,20.90
2012,09,12,16,30,20.90
2012,09,12,16,31,20.90
2012,09,12,16,32,20.90
2012,09,12,16,33,20.90
2012,09,12,16,34,20.90
2012,09,12,16,35,20.90
2012,09,12,16,36,20.90
2012,09,12,16,37,20.90
2012,09,12,16,38,20.90
2012,09,12,16,39,20.90
2012,09,12,16,40,21.00
2012,09,12,16,41,21.00
2012,09,12,16,42,20.90
2012,09,12,16,43,20.90
2012,09,12,16,44,20.80
2012,09,12,16,45,20.80
2012,09,12,16,46,20.80
2012,09,12,16,47,20.80
2012,09,12,16,48,20.80
2012,09,12,16,49,20.80
2012,09,12,16,50,20.80
2012,09,12,16,51,20.80
2012,09,12,16,52,20.80
2012,09,12,16,53,20.70
2012,09,12,16,54,20.70
2012,09,12,16,55,20.80
2012,09,12,16,56,20.80
2012,09,12,16,57,20.80
2012,09,12,16,58,20.80
2012,09,12,16,59,20.80
2012,09,12,17,00,20.80
2012,09,12,17,01,20.80
2012,09,12,17,02,20.70
2012,09,12,17,03,20.70
2012,09,12,17,04,20.70
2012,09,12,17,05,20.70
2012,09,12,17,06,20.70
2012,09,12,17,07,20.70
2012,09,12,17,08,20.60
2012,09,12,17,09,20.60
2012,09,12,17,10,20.60
2012,09,12,17,11,20.60
2012,09,12,17,12,20.70
2012,09,12,17,13,20.70
2012,09,12,17,14,20.70
2012,09,12,17,15,20.70
2012,09,12,17,16,20.70
2012,09,12,17,17,20.70
2012,09,12,17,18,20.70
2012,09,12,17,19,20.70
2012,09,12,17,20,20.70
2012,09,12,17,21,20.70
2012,09,12,17,22,20.70
2012,09,12,17,23,20.70
2012,09,12,17,24,20.70
2012,09,12,17,25,20.70
2012,09,12,17,26,20.70
2012,09,12,17,27,20.60
2012,09,12,17,28,20.60
2012,09,12,17,29,20.60
2012,09,12,17,30,20.60
2012,09,12,17,31,20.50
2012,09,12,17,32,20.50
2012,09,12,17,33,20.50
2012,09,12,17,34,20.50
2012,09,12,17,35,20.50
2012,09,12,17,36,20.50